When you browse on this site, cookies collect data to enhance your experience and personalize the content and advertising you see.
Visit our Privacy Policy to learn more. By continuing to use the site, you agree to this use of cookies and data.
EN

Hourly Weather Manika

Today, 6 August, Thursday

Time Temperature Precipitation Wind Pressure Humidity
00:00 +16°C° 0 mm 1 mps 681 mmHg 69%
01:00 +15°C° 0 mm 1 mps 680 mmHg 74%
02:00 +14°C° 0 mm 2 mps 680 mmHg 77%
03:00 +14°C° 0 mm 2 mps 680 mmHg 79%
04:00 +14°C° 0 mm 2 mps 680 mmHg 81%
05:00 +14°C° 0 mm 2 mps 680 mmHg 83%
06:00 +15°C° 0 mm 1 mps 680 mmHg 76%
07:00 +18°C° 0 mm 1 mps 681 mmHg 69%
08:00 +20°C° 0 mm 1 mps 682 mmHg 62%
09:00 +23°C° 0 mm 1 mps 682 mmHg 51%
10:00 +27°C° 0 mm 1 mps 683 mmHg 40%
11:00 +30°C° 0 mm 1 mps 683 mmHg 28%
12:00 +30°C° 0 mm 1 mps 683 mmHg 27%
13:00 +30°C° 0 mm 1 mps 682 mmHg 25%
14:00 +29°C° 0 mm 1 mps 681 mmHg 23%
15:00 +28°C° 0 mm 2 mps 680 mmHg 26%
16:00 +27°C° 0 mm 2 mps 680 mmHg 29%
17:00 +26°C° 0 mm 2 mps 680 mmHg 33%
18:00 +24°C° 0 mm 2 mps 680 mmHg 41%
19:00 +21°C° 0 mm 2 mps 680 mmHg 48%
20:00 +19°C° 0 mm 2 mps 681 mmHg 56%
21:00 +18°C° 0 mm 2 mps 681 mmHg 61%
22:00 +18°C° 0 mm 1 mps 681 mmHg 66%
23:00 +16°C° 0 mm 1 mps 681 mmHg 72%

Tomorrow, 7 August, Friday

Time Temperature Precipitation Wind Pressure Humidity
00:00 +16°C° 0 mm 1 mps 681 mmHg 75%
01:00 +15°C° 0 mm 1 mps 681 mmHg 78%
02:00 +15°C° 0 mm 1 mps 680 mmHg 82%
03:00 +15°C° 0 mm 1 mps 681 mmHg 84%
04:00 +14°C° 0 mm 1 mps 681 mmHg 86%
05:00 +14°C° 0 mm 1 mps 681 mmHg 88%
06:00 +16°C° 0 mm 1 mps 682 mmHg 78%
07:00 +19°C° 0 mm 1 mps 683 mmHg 69%
08:00 +21°C° 0 mm 1 mps 684 mmHg 60%
09:00 +21°C° 0.1 mm 2 mps 685 mmHg 57%
10:00 +22°C° 0.1 mm 3 mps 685 mmHg 55%
11:00 +23°C° 0.1 mm 4 mps 686 mmHg 53%
12:00 +22°C° 0.1 mm 4 mps 685 mmHg 53%
13:00 +22°C° 0.1 mm 4 mps 685 mmHg 53%
14:00 +22°C° 0.1 mm 4 mps 684 mmHg 53%
15:00 +21°C° 0.1 mm 4 mps 684 mmHg 56%
16:00 +20°C° 0.1 mm 4 mps 685 mmHg 58%
17:00 +19°C° 0.1 mm 4 mps 685 mmHg 61%
18:00 +18°C° 0 mm 3 mps 685 mmHg 68%
19:00 +16°C° 0 mm 3 mps 685 mmHg 75%
20:00 +15°C° 0 mm 2 mps 685 mmHg 82%
21:00 +15°C° 0 mm 2 mps 685 mmHg 85%
22:00 +14°C° 0 mm 2 mps 685 mmHg 88%
23:00 +14°C° 0 mm 2 mps 685 mmHg 90%

Day after tomorrow, 8 August, Saturday

Time Temperature Precipitation Wind Pressure Humidity
00:00 +14°C° 0 mm 2 mps 685 mmHg 89%
01:00 +13°C° 0 mm 3 mps 685 mmHg 87%
02:00 +12°C° 0 mm 3 mps 684 mmHg 86%
03:00 +12°C° 0 mm 3 mps 684 mmHg 88%
04:00 +12°C° 0 mm 2 mps 684 mmHg 91%
05:00 +10°C° 0 mm 2 mps 684 mmHg 93%
06:00 +12°C° 0 mm 2 mps 684 mmHg 86%
07:00 +13°C° 0 mm 2 mps 685 mmHg 79%
08:00 +14°C° 0 mm 2 mps 686 mmHg 73%
09:00 +16°C° 0 mm 2 mps 686 mmHg 63%
10:00 +18°C° 0 mm 3 mps 686 mmHg 54%
11:00 +20°C° 0 mm 3 mps 686 mmHg 44%
12:00 +21°C° 0 mm 3 mps 686 mmHg 40%
13:00 +22°C° 0 mm 3 mps 685 mmHg 37%
14:00 +24°C° 0 mm 3 mps 684 mmHg 33%
15:00 +22°C° 0 mm 3 mps 684 mmHg 36%
16:00 +21°C° 0 mm 3 mps 683 mmHg 38%
17:00 +19°C° 0 mm 3 mps 683 mmHg 41%
18:00 +17°C° 0 mm 3 mps 683 mmHg 49%
19:00 +15°C° 0 mm 2 mps 682 mmHg 57%
20:00 +13°C° 0 mm 2 mps 682 mmHg 64%
21:00 +12°C° 0 mm 2 mps 682 mmHg 68%
22:00 +12°C° 0 mm 2 mps 682 mmHg 71%
23:00 +10°C° 0 mm 2 mps 682 mmHg 75%

9 August, Sunday

Time Temperature Precipitation Wind Pressure Humidity
00:00 +10°C° 0 mm 1 mps 682 mmHg 80%
01:00 +10°C° 0 mm 1 mps 681 mmHg 85%
02:00 +9°C° 0 mm 1 mps 680 mmHg 90%
03:00 +9°C° 0 mm 1 mps 680 mmHg 90%
04:00 +9°C° 0 mm 1 mps 680 mmHg 91%
05:00 +8°C° 0 mm 1 mps 680 mmHg 91%
06:00 +11°C° 0 mm 1 mps 680 mmHg 81%
07:00 +12°C° 0 mm 0 mps 681 mmHg 70%
08:00 +14°C° 0 mm 0 mps 682 mmHg 60%
09:00 +19°C° 0 mm 1 mps 682 mmHg 48%
10:00 +21°C° 0 mm 1 mps 682 mmHg 36%
11:00 +24°C° 0 mm 2 mps 682 mmHg 25%
12:00 +25°C° 0 mm 2 mps 681 mmHg 22%
13:00 +26°C° 0 mm 3 mps 681 mmHg 19%
14:00 +27°C° 0 mm 3 mps 680 mmHg 15%
15:00 +26°C° 0 mm 2 mps 680 mmHg 17%
16:00 +25°C° 0 mm 2 mps 680 mmHg 18%
17:00 +24°C° 0 mm 1 mps 679 mmHg 20%
18:00 +21°C° 0 mm 1 mps 679 mmHg 23%
19:00 +19°C° 0 mm 1 mps 679 mmHg 27%
20:00 +15°C° 0 mm 1 mps 679 mmHg 31%
21:00 +14°C° 0 mm 1 mps 679 mmHg 34%
22:00 +14°C° 0 mm 1 mps 679 mmHg 37%
23:00 +13°C° 0 mm 1 mps 679 mmHg 41%

10 August, Monday

Time Temperature Precipitation Wind Pressure Humidity
00:00 +12°C° 0 mm 1 mps 678 mmHg 40%
01:00 +12°C° 0 mm 1 mps 678 mmHg 40%
02:00 +11°C° 0 mm 1 mps 677 mmHg 40%
03:00 +11°C° 0 mm 1 mps 677 mmHg 40%
04:00 +11°C° 0 mm 1 mps 677 mmHg 40%
05:00 +11°C° 0 mm 1 mps 677 mmHg 40%
06:00 +13°C° 0 mm 1 mps 678 mmHg 35%
07:00 +16°C° 0 mm 1 mps 679 mmHg 30%
08:00 +19°C° 0 mm 1 mps 680 mmHg 25%
09:00 +21°C° 0 mm 2 mps 680 mmHg 22%
10:00 +26°C° 0 mm 3 mps 681 mmHg 18%
11:00 +29°C° 0 mm 4 mps 681 mmHg 15%
12:00 +29°C° 0 mm 4 mps 681 mmHg 15%
13:00 +29°C° 0 mm 4 mps 680 mmHg 15%
14:00 +30°C° 0 mm 4 mps 680 mmHg 15%
15:00 +29°C° 0 mm 4 mps 680 mmHg 17%
16:00 +27°C° 0 mm 4 mps 680 mmHg 18%
17:00 +26°C° 0 mm 3 mps 680 mmHg 20%
18:00 +22°C° 0 mm 3 mps 680 mmHg 26%
19:00 +20°C° 0 mm 2 mps 680 mmHg 31%
20:00 +18°C° 0 mm 1 mps 681 mmHg 37%
21:00 +16°C° 0 mm 1 mps 681 mmHg 40%
22:00 +14°C° 0 mm 0 mps 681 mmHg 44%
23:00 +13°C° 0 mm 0 mps 681 mmHg 48%

11 August, Tuesday

Time Temperature Precipitation Wind Pressure Humidity
00:00 +12°C° 0 mm 0 mps 681 mmHg 52%
01:00 +12°C° 0 mm 0 mps 681 mmHg 56%
02:00 +12°C° 0 mm 1 mps 680 mmHg 60%
03:00 +12°C° 0 mm 1 mps 680 mmHg 64%
04:00 +11°C° 0 mm 1 mps 680 mmHg 69%
05:00 +10°C° 0 mm 1 mps 680 mmHg 73%
06:00 +12°C° 0 mm 1 mps 681 mmHg 70%
07:00 +14°C° 0 mm 1 mps 682 mmHg 66%
08:00 +15°C° 0 mm 1 mps 683 mmHg 63%
09:00 +18°C° 0 mm 2 mps 683 mmHg 55%
10:00 +20°C° 0 mm 2 mps 683 mmHg 47%
11:00 +24°C° 0 mm 3 mps 684 mmHg 39%
12:00 +24°C° 0 mm 3 mps 683 mmHg 36%
13:00 +25°C° 0 mm 3 mps 683 mmHg 33%
14:00 +26°C° 0 mm 3 mps 682 mmHg 30%
15:00 +24°C° 0 mm 3 mps 682 mmHg 34%
16:00 +22°C° 0 mm 3 mps 681 mmHg 38%
17:00 +21°C° 0 mm 4 mps 681 mmHg 42%
18:00 +18°C° 0 mm 3 mps 681 mmHg 52%
19:00 +16°C° 0 mm 3 mps 681 mmHg 62%
20:00 +14°C° 0 mm 2 mps 681 mmHg 72%
21:00 +13°C° 0 mm 2 mps 681 mmHg 76%
22:00 +13°C° 0 mm 2 mps 681 mmHg 80%
23:00 +12°C° 0 mm 2 mps 681 mmHg 83%
Show more